STARLINK-4149 (53290 NORAD) Tracking and Keplerian Element Data

This shows tracking and keplerian element data for the satellite.

Feedback or suggestion? Click here.




ElementValue
Catalog53290
NameSTARLINK-4149
Epoch Orbit130
Epoch Day269.91667824
Epoch Year2022
RAAN84.8635
Inclination53.2173
Eccentricity0.000171
Argument of Perigee33.4694
Mean Anonmoly46.7207
Mean Motion15.63860548
Decay Rate-0.01076893
L11 53290U 22086BA 22269.91667824 -.01076893 00000+0 -12372-1 0 9992
L22 53290 53.2173 84.8635 0001710 33.4694 46.7207 15.63860548 1300

Live tracking and technical data element details for STARLINK-4149 (NORAD 53290). STARLINK-4149 can be tracked NOW for your location showing map with azimuth and elevation plus other details from your city location.

Track the satellite on the map from your city or location and see movement details for azimuth, elevation, latitude, longitude, range, height, and movement on the map or in text.







IsCatalogInMostPopularTable: catalog: 53290, numindb: 3
Update: records affected: 1



GetName: 53290 STARLINK-4149

Hit Count: updated at: Thu, 29 Sep 2022 11:59:19 GMT